Regional Weather Roundup
Issued by NWS

Home | Current Version | Previous Version | Text Only | Print | Product List | Glossary On
Versions: 1 2 3 4 5 6 7 8 9 10 11 12 13 14 15 16 17 18 19 20 21 22 23 24 25 26 27 28 29 30 31 32 33 34 35 36 37 38 39 40 41 42 43 44 45 46 47 48 49 50
160
ASUS43 KMKX 082121
RWRWI

WISCONSIN REGIONAL WEATHER ROUNDUP
NATIONAL WEATHER SERVICE MILWAUKEE/SULLIVAN WI
300 PM CST MON FEB 08 2016

NOTE: "FAIR" INDICATES FEW OR NO CLOUDS BELOW 12,000 FEET WITH NO
SIGNIFICANT WEATHER AND/OR OBSTRUCTIONS TO VISIBILITY.

WIZ001-002-006>008-014>016-023>028-082200-
NORTHWEST WISCONSIN

CITY           SKY/WX    TMP DP  RH WIND       PRES   REMARKS
SUPERIOR ARPT  FLURRIES  13   4  67 NW14      29.94R WCI  -2
ASHLAND        CLOUDY    16   8  71 NW10      29.86R WCI   4
HAYWARD        CLOUDY    14   6  70 N8        29.84R WCI   3
SIREN          CLOUDY    15   3  59 NW16G24   29.91R WCI  -1
CUMBERLAND     CLOUDY    14   5  67 NW14      29.86R HAZE    WCI  -1
RICE LAKE      LGT SNOW  14   7  72 W10G16    29.88R WCI   2
CHETEK         LGT SNOW  14   7  72 NW7G17    29.86R WCI   4
LADYSMITH      LGT SNOW  16   9  74 NW15      29.82R WCI   1
EAU CLAIRE     FLURRIES  15   5  64 NW14G24   29.87R WCI   0
MENOMONIE      FLURRIES  17   6  61 NW20G25   29.88R WCI   1
NEW RICHMOND   LGT SNOW  14   5  68 NW18G24   29.91R WCI  -3
OSCEOLA        CLOUDY    16   5  62 NW16G23   29.95S WCI   1
$$

WIZ003>005-009-010-017-018-082200-
NORTH CENTRAL WISCONSIN

CITY           SKY/WX    TMP DP  RH WIND       PRES   REMARKS
MANITOWISH WTR LGT SNOW  15  11  85 NW12      29.72S VSB 3/4 WCI   2
ARBOR VITAE    LGT SNOW  18  12  77 N14G21    29.72R WCI   4
WOODRUFF       LGT SNOW  18  12  77 N14G21    29.72R WCI   4
RHINELANDER    LGT SNOW  19  12  74 NW10      29.69R WCI   7
EAGLE RIVER    LGT SNOW  19  13  77 NW14      29.69R WCI   5
LAND O LAKES   LGT SNOW  18  13  82 N10       29.70R WCI   6
PHILLIPS       LGT SNOW  16  11  80 N7        29.75R WCI   6
TOMAHAWK       FLURRIES  19  12  73 NW8       29.72R WCI   9
MEDFORD        FLURRIES  18  11  74 NW18      29.72R WCI   2
MERRILL        LGT SNOW  23  14  68 N9        29.71R WCI  13
$$

WIZ029-030-035-036-043>047-082200-
CENTRAL WISCONSIN

CITY           SKY/WX    TMP DP  RH WIND       PRES   REMARKS
WAUSAU         CLOUDY    26  14  60 NW14      29.69R WCI  14
MOSINEE        CLOUDY    23  18  80 NW14G21   29.71R WCI  11
MARSHFIELD     CLOUDY    21  10  62 NW20      29.72R WCI   6
STEVENS POINT  FLURRIES  22  15  72 NW13G18   29.71R WCI  10
WAUPACA        CLOUDY    30  20  65 NW13      29.69R WCI  20
WAUTOMA        CLOUDY    24  17  74 NW17      29.71S WCI  11
WISC RAPIDS    CLOUDY    20  11  68 NW17      29.75R WCI   5
CAMP DOUGLAS   CLOUDY    21  16  79 NW15      29.76R WCI   8
$$

WIZ011>013-019>022-031-037>040-048>050-082200-
NORTHEAST WISCONSIN

CITY           SKY/WX    TMP DP  RH WIND       PRES   REMARKS
ANTIGO         CLOUDY    23  16  74 N14       29.67R WCI  11
SHAWANO        LGT SNOW  29  22  73 NW10      29.69R WCI  20
OCONTO         CLOUDY    26  26 100 N8        29.68R WCI  17
STURGEON BAY   CLOUDY    27  19  74 NW16      29.68R WCI  14
GREEN BAY      LGT SNOW  29  22  75 N14       29.67R WCI  18
MANITOWOC      MIX PCPN  31  27  85 NW18      29.65R WCI  19
APPLETON       FLURRIES  28  19  69 NW15      29.65R WCI  17
CLINTONVILLE   LGT SNOW  27  21  80 NW12      29.68R WCI  16
OSHKOSH        CLOUDY    29  23  78 NW12      29.67R WCI  19
$$

WIZ032>034-041-042-053>061-082200-
SOUTHWEST WISCONSIN

CITY           SKY/WX    TMP DP  RH WIND       PRES   REMARKS
LA CROSSE      CLOUDY    17   8  67 NW18      29.86R WCI   1
SPARTA         CLOUDY    20  11  68 NW15G24   29.82R WCI   6
VIROQUA        CLOUDY    19  10  69 NW16      29.77R WCI   4
BOSCOBEL       CLOUDY    23  11  60 NW12G21   29.81R WCI  12
PRAIRIE DU CHI CLOUDY    21   9  60 NW15      29.83R WCI   8
PLATTEVILLE    CLOUDY    22  15  74 NW16      29.76R WCI   8
$$

WIZ056-057-062-063-064-067-068-082200-
SOUTH CENTRAL WISCONSIN

CITY           SKY/WX    TMP DP  RH WIND       PRES   REMARKS
REEDSBURG      CLOUDY    21  13  71 NW7G18    29.74S WCI  13
BARABOO/DELLS  CLOUDY    21  13  72 NW14G20   29.73R WCI   8
LONE ROCK      CLOUDY    22  12  65 NW14G24   29.78R WCI   9
MINERAL POINT  CLOUDY    23  14  68 NW15      29.74R WCI  10
MADISON        CLOUDY    22  14  71 NW14G22   29.72R WCI   9
MIDDLETON      CLOUDY    24  16  74 NW12G20   29.73R WCI  12
WATERTOWN      CLOUDY    25  19  76 NW13      29.69R WCI  14
MONROE         CLOUDY    25  18  74 NW12G17   29.71R WCI  14
JANESVILLE     CLOUDY    27  18  69 MISG      29.70S
$$

WIZ051-052-058>065-066-070>072-082200-
SOUTHEAST WISCONSIN

CITY           SKY/WX    TMP DP  RH WIND       PRES   REMARKS
MILWAUKEE      CLOUDY    26  20  77 NW15      29.66R WCI  14
WAUKESHA       CLOUDY    23  19  86 W15       29.67R WCI  10
MILWAUKEE/TIMM CLOUDY    27  18  69 W16       29.67R WCI  14
RACINE         CLOUDY    26  20  77 W13G23    29.67R WCI  15
BURLINGTON     CLOUDY    24  18  77 NW12      29.69R WCI  13
KENOSHA        CLOUDY    27  20  75 W14       29.67R WCI  16
FOND DU LAC    CLOUDY    27  20  75 W13       29.67R WCI  16
SHEBOYGAN      LGT SNOW  28  23  81 NW9       29.65R WCI  19
WEST BEND      CLOUDY    28  21  74 W14G20    29.66R WCI  17
JUNEAU         CLOUDY    25  19  78 NW10G17   29.70R WCI  14
$$

LSZ147-162-082200-
LAKE SUPERIOR

STATION/POSITION TIME  TEMP    WIND        PRES    WAVE
                       AIR SEA DIR/SP/G            HT/PER
                 (UTC) (F)     (DEG/KT/KT) (MB)    (FT/S)
DEVILS ISLAND    2100   15     310/ 17/ 20 1012.6R
PORT WING        2000   17     310/ 15/ 19 1011.9
SAXON HARBOR     2040   18                 1010.5R
$$

LMZ867-665-643>646-082200-
LAKE MICHIGAN

STATION/POSITION TIME  TEMP    WIND        PRES    WAVE
                       AIR SEA DIR/SP/G            HT/PER
                 (UTC) (F)     (DEG/KT/KT) (MB)    (FT/S)
CHAMBERS ISLAND  2000   28     320/ 17/ 19 1004.4R
NORTHPORT PIER   2100   27     340/ 17/ 22 1004.4R
ALGOMA LAKESHORE 2041          360/ 18/ 26   N/A
KEWAUNEE LAKESHO 2000   31     360/  9/ 14 1002.6R
SHEBOYGAN LAKESH 2100   28     290/ 14/ 17 1004.7R
PORT WASHINGTON  2000   28     300/ 11/ 21 1004.7R
MILWAUKEE LAKESH 2010   26     290/ 16/ 18   N/A
KENOSHA   LAKESH 2100   27     290/ 14/ 19 1005.1R
$$

TC  - TEMPERATURE IN CELSIUS
VSB - VISIBILITY IN STATUTE MILES
WCI - WIND CHILL INDEX
HX  - HEAT INDEX





USA.gov is the U.S. government's official web portal to all federal, state and local government web resources and services.